DELTA 1 DEB, 10712

Orbit data source: Space-Track

DELTA 1 DEB, 10712 is space debris in SSO originally from a launch on Thu, 29 Jul 1976 UTC launched from the Air Force Western Test Range (AFWTR). Debris objects in space refer to the collection of defunct objects orbiting the Earth. Examples of debris include non-operational satellites, rocket bodies, and fragments generated from explosions, collisions, or faulty payload assembly.

Loading next visibility...
DELTA 1 DEB details
Identifier
10712, 1976-077AH
Orbit
SSO
Last TLE update9 hours ago
Origin
Flag of USGSFC (US)
ManufacturerUnknown
MissionSpacecraft
Bus & MotorUnknown
MassUnknown
Launch date (UTC)
1976-07-29 (48 years ago)
Launch vehicleUnknown
Launch site
Air Force Western Test Range (AFWTR)
Object type
Payload
Rocket body
Debris
Shape & HBRUnknown
Radar Cross SectionSmall (<0.1 m²)

Expand to show TLE details & history

TLE from 9 hours ago
0 DELTA 1 DEB
1 10712U 76077AH  24361.20911208  .00001555  00000-0  12002-1 0  9999
2 10712 102.2196 122.0396 0064177   5.8035 111.4320 12.39371059180970
Epoch: 2024-12-26T05:01Z
Definitive object data (Epoch: 2024-12-26T05:01:07.283Z)
Latitude59.81427°
Longitude153.3138°
Altitude1,538.005 km
Speed7.094 km/s
True Right ascension21h 35m 08s
True Declination59° 40' 46"
Sunlit
Object was in daylight at TLE epoch
Visualization TLE readout
Latitude55.87123°
Longitude-66.58098°
Altitude1,487.453 km
Speed7.139 km/s
Apparent Right ascension04h 10m 42s
Apparent Declination18° 24' 09"
Sunlit
Object is in full shadow
Visualization observer readout
Local Sidereal Time13:44:44
Azimuth322.359° NNW
Elevation-22.491°
Doppler factor1
Orbital elements
Apogee altitude1,557.463 km
Perigee altitude1,456.255 km
Semi-major axis7,884.996 km
Eccentricity0.0064177
Inclination102.2196°
RAAN122.0396°
Arg. of periapsis5.8035°
True anomaly112.11454°
Mean anomaly111.432°
Eccentric anomaly111.77347°
Mean motion3.09985 °/min
BSTAR0.012002
Orbital period116.13 mins
Loading maneuver chart data...
Loading historical data...
Loading historical data...
Loading historical data...
Loading historical data...
Loading historical data...
Loading historical data...
Loading historical data...

DELTA 1 DEB Visibility forecast

Observer location: undefined°, undefined

Span
Click to sort rows by Start time (UTC) header in descending order
Start Az.
Max El. time (UTC)
Max El. Az.
Max El.
End time (UTC)
End Az.
16 mins2024-12-26 20:30:54.947Z30.435° NE2024-12-26 20:38:54.947Z105.475° ESE36.383°2024-12-26 20:46:54.947Z173.39° S
14 mins2024-12-26 22:25:54.947Z1.218° NNE2024-12-26 22:32:54.947Z292.465° WNW33.643°2024-12-26 22:39:54.947Z235.007° WSW
7 mins2024-12-27 05:48:54.947Z68.795° E2024-12-27 05:51:54.947Z45.115° ENE15.381°2024-12-27 05:55:54.947Z15.448° NNE
14 mins2024-12-27 07:37:54.947Z145.293° SSE2024-12-27 07:43:54.947Z78.125° E42.984°2024-12-27 07:51:54.947Z347.313° N
11 mins2024-12-27 09:33:54.947Z222.386° SW2024-12-27 09:38:54.947Z267.224° W22.948°2024-12-27 09:44:54.947Z315.588° NNW
|